Location: Unspecified
(0.0000°N, 0.0000°E)
Time: 20:00:54
(UTC+00:00)

CZ-3C DEB - Pass Details

Date: 13 March 2026
Orbit: 544 x 34777 km, 21.8° (Epoch: 16 April)

Event Time Altitude Azimuth Distance (km) Brightness Sun altitude
Exits shadow 05:10:16 24° 274° (W) 1,277 ? -14.8°
Maximum altitude 05:12:21 64° 198° (SSW) 866 ? -14.3°
Drops below altitude 10° 05:21:19 10° 117° (ESE) 4,812 ? -12.0°
Sets 05:29:33 0° 115° (ESE) 8,388 ? -10.0°
